Location: Unspecified
(47.8330°N, 0.0000°E)
Time: 15:22:09
(UTC+00:00)

VELOX 1 - Pass Details

Date: 03 September 2019
Orbit: 629 x 643 km, 98.2° (Epoch: 18 September)

Event Time Altitude Azimuth Distance (km) Brightness Sun altitude
Exits shadow 01:39:53 23° 332° (NNW) 1,356 ? -30.2°
Drops below altitude 10° 01:41:38 10° 339° (NNW) 2,031 ? -30.1°
Sets 01:43:53 0° 343° (NNW) 2,946 ? -29.9°
